Weather History for Lincoln, NE

Change the Weather History Date:

Tuesday, December 20, 2011

  Actual Average Record
Temperature  
Mean Temperature 32 °F 26 °F  
Max Temperature 37 °F 36 °F 64 °F (1894)
Min Temperature 27 °F 15 °F -16 °F (1973)
Degree Days  
Heating Degree Days 33 39  
Month to date heating degree days 772 743  
Since 1 July heating degree days 1996 2004  
Cooling Degree Days 0 0  
Month to date cooling degree days 0 0  
Year to date cooling degree days 1296 1173  
Moisture  
Dew Point 23 °F    
Average Humidity 74    
Maximum Humidity 92    
Minimum Humidity 56    
Precipitation  
Precipitation 0.00 in 0.03 in 0.60 in (1902)
Month to date precipitation 1.56 0.66  
Year to date precipitation 29.15 28.66  
Snow  
Snow 0.00 in 0.20 in - ()
Month to date snowfall 4.6 3.8  
Since 1 July snowfall 4.6 6.6  
Snow Depth 0.00 in    
Sea Level Pressure  
Sea Level Pressure 30.02 in    
Wind  
Wind Speed 8 mph (NNE)    
Max Wind Speed 21 mph    
Max Gust Speed 24 mph    
Visibility 10 miles    
Events      
T = Trace of Precipitation, MM = Missing Value Source: NWS Daily Summary

Daily Weather History Graph

Daily Weather History Graph

Search for Another Location

Airport:

Trip Planner

Search our weather history database for the weather conditions in past years. The results will help you decide how hot, cold, wet, or windy it might be!

Date:

Astronomy

Dec. 20, 2011 Rise Set
Actual Time 7:47 AM CST 5:01 PM CST
Civil Twilight 7:16 AM CST 5:32 PM CST
Nautical Twilight 6:41 AM CST 6:07 PM CST
Astronomical Twilight 6:08 AM CST 6:40 PM CST
Moon 3:09 AM CST (12/20) 1:39 PM CST (12/20)
Length of Visible Light 10h 16m
Length of Day
9h 14m
Waning Crescent, 21% of the Moon is Illuminated
Dec 20
Waning Crescent
Dec 24
New
Jan 1
First Quarter
Jan 9
Full
Jan 16
Last Quarter

Hourly Weather History & Observations

Time (CST) Temp. Windchill Dew Point Humidity Pressure Visibility Wind Dir Wind Speed Gust Speed Precip Events Conditions
12:54 AM 30.9 °F 22.2 °F 23.0 °F 72% 30.25 in 10.0 mi NE 10.4 mph - N/A   Clear
1:54 AM 30.0 °F 19.1 °F 23.0 °F 75% 30.20 in 10.0 mi NNE 15.0 mph - N/A   Partly Cloudy
2:54 AM 28.9 °F 16.9 °F 21.9 °F 75% 30.17 in 10.0 mi NNE 17.3 mph - N/A   Overcast
3:54 AM 28.4 °F 16.6 °F 21.2 °F 74% 30.12 in 10.0 mi NE 16.1 mph - N/A   Overcast
4:54 AM 28.0 °F 18.1 °F 21.9 °F 78% 30.17 in 10.0 mi NNE 11.5 mph - N/A   Overcast
5:54 AM 28.0 °F 19.3 °F 21.9 °F 78% 30.15 in 10.0 mi North 9.2 mph - N/A   Mostly Cloudy
6:54 AM 27.0 °F 18.0 °F 21.9 °F 81% 30.14 in 10.0 mi North 9.2 mph - N/A   Mostly Cloudy
7:54 AM 27.0 °F 17.3 °F 21.0 °F 78% 30.14 in 10.0 mi North 10.4 mph - N/A   Mostly Cloudy
8:54 AM 27.0 °F 17.3 °F 21.0 °F 78% 30.14 in 10.0 mi NNE 10.4 mph - N/A   Mostly Cloudy
9:54 AM 28.0 °F 17.5 °F 21.0 °F 75% 30.13 in 10.0 mi NNE 12.7 mph - N/A   Overcast
10:54 AM 30.0 °F 21.7 °F 21.0 °F 69% 30.11 in 10.0 mi NNE 9.2 mph - N/A   Overcast
11:54 AM 32.0 °F 23.6 °F 21.9 °F 66% 30.06 in 10.0 mi North 10.4 mph - N/A   Mostly Cloudy
12:54 PM 33.1 °F 26.9 °F 23.0 °F 66% 30.01 in 10.0 mi North 6.9 mph - N/A   Mostly Cloudy
1:54 PM 35.1 °F 28.6 °F 23.0 °F 61% 29.96 in 10.0 mi North 8.1 mph - N/A   Mostly Cloudy
2:54 PM 36.0 °F - 21.9 °F 57% 29.93 in 10.0 mi Calm Calm - N/A   Overcast
3:54 PM 35.1 °F 31.0 °F 21.9 °F 59% 29.91 in 10.0 mi NE 4.6 mph - N/A   Overcast
4:54 PM 34.0 °F 28.8 °F 23.0 °F 64% 29.91 in 10.0 mi NNE 5.8 mph - N/A   Overcast
5:54 PM 33.1 °F - 23.0 °F 66% 29.91 in 10.0 mi Calm Calm - N/A   Overcast
6:54 PM 32.0 °F 27.5 °F 24.8 °F 75% 29.86 in 10.0 mi NNE 4.6 mph - N/A   Overcast
7:54 PM 32.0 °F 28.7 °F 23.0 °F 69% 29.89 in 10.0 mi North 3.5 mph - N/A   Overcast
8:54 PM 32.0 °F - 24.1 °F 73% 29.88 in 10.0 mi Calm Calm - N/A   Overcast
9:54 PM 30.9 °F 27.5 °F 25.0 °F 79% 29.86 in 10.0 mi SW 3.5 mph - N/A   Clear
10:54 PM 27.0 °F 20.5 °F 24.1 °F 89% 29.85 in 10.0 mi South 5.8 mph - N/A   Partly Cloudy
11:54 PM 27.0 °F - 24.1 °F 89% 29.84 in 10.0 mi Calm Calm - N/A   Mostly Cloudy